Regional Weather Roundup
Issued by NWS

Home | Current Version | Previous Version | Graphics & Text | Print | Product List | Glossary On
Versions: 1 2 3 4 5 6 7 8 9 10 11 12 13 14 15 16 17 18 19 20 21 22 23 24 25 26 27 28 29 30 31 32 33 34 35 36 37 38 39 40 41 42 43 44 45 46 47 48 49 50
000
ASUS43 KMKX 190321
RWRWI

WISCONSIN REGIONAL WEATHER ROUNDUP
NATIONAL WEATHER SERVICE MILWAUKEE/SULLIVAN WI
1000 PM CDT FRI AUG 18 2017

NOTE: "FAIR" INDICATES FEW OR NO CLOUDS BELOW 12,000 FEET WITH NO
SIGNIFICANT WEATHER AND/OR OBSTRUCTIONS TO VISIBILITY.

WIZ001-002-006>008-014>016-023>028-190400-
NORTHWEST WISCONSIN

CITY           SKY/WX    TMP DP  RH WIND       PRES   REMARKS
SUPERIOR ARPT    N/A     62  59  91 SW7       29.86S
ASHLAND        FAIR      63  61  93 SW6       29.86S
HAYWARD        FAIR      60  58  92 S3        29.90S
SIREN          FAIR      63  61  94 CALM      29.90S
CUMBERLAND     FAIR      61  61 100 CALM      29.91S
RICE LAKE      FAIR      61  60  96 CALM      29.92S FOG
CHETEK         FAIR      63  63 100 CALM      29.91S FOG
LADYSMITH      FAIR      64  62  93 W5        29.93R
EAU CLAIRE     FAIR      65  61  87 CALM      29.90R
MENOMONIE      FAIR      64  62  93 SW5       29.92R
NEW RICHMOND   FAIR      63  61  95 W5        29.92S
OSCEOLA        FAIR      62  62 100 CALM      29.94S
$$

WIZ003>005-009-010-017-018-190400-
NORTH CENTRAL WISCONSIN

CITY           SKY/WX    TMP DP  RH WIND       PRES   REMARKS
MANITOWISH WTR FAIR      56  56 100 CALM      29.89S
ARBOR VITAE    FAIR      58  57  95 CALM      29.89S
WOODRUFF       FAIR      58  57  95 CALM      29.89S
RHINELANDER    FAIR      57  56  96 W6        29.90R
EAGLE RIVER    FOG       53  53 100 CALM      29.89R VSB 3/4
LAND O LAKES   FAIR      53  53 100 CALM      29.90S FOG
PHILLIPS       FAIR      60  60 100 CALM      29.89S
TOMAHAWK         N/A     56  55  96 CALM      29.91R
MEDFORD        FAIR      62  60  95 W6        29.91R
MERRILL        FAIR      61  59  94 CALM      29.90R
$$

WIZ029-030-035-036-043>047-190400-
CENTRAL WISCONSIN

CITY           SKY/WX    TMP DP  RH WIND       PRES   REMARKS
WAUSAU         FAIR      64  59  83 NW5       29.88R
MOSINEE        PTCLDY    63  61  94 W7        29.91R
MARSHFIELD     FAIR      64  61  90 NW7       29.91R
STEVENS POINT  FAIR      63  62  96 W3        29.89S
WAUPACA        FAIR      67  61  80 W5        29.88S
WAUTOMA        CLOUDY    66  62  87 W6        29.90R
WISC RAPIDS    CLOUDY    65  64  97 W7        29.91R
CAMP DOUGLAS   FAIR      62  61  97 W3        29.90R
$$

WIZ011>013-019>022-031-037>040-048>050-190400-
NORTHEAST WISCONSIN

CITY           SKY/WX    TMP DP  RH WIND       PRES   REMARKS
ANTIGO         FAIR      60  59  97 W6        29.90R
SHAWANO        FAIR      66  61  82 W5        29.87R
OCONTO         FAIR      58  56  95 CALM      29.85S
STURGEON BAY   FAIR      62  56  80 N6        29.85S
GREEN BAY      FAIR      64  62  93 N6        29.86R
MANITOWOC      FAIR      65  59  81 NW8       29.86R
APPLETON       MOCLDY    64  57  77 W6        29.86R
CLINTONVILLE   FAIR      64  59  82 W6        29.87S
OSHKOSH        CLOUDY    66  60  81 W7        29.86S
$$

WIZ032>034-041-042-053>061-190400-
SOUTHWEST WISCONSIN

CITY           SKY/WX    TMP DP  RH WIND       PRES   REMARKS
LA CROSSE      FAIR      64  61  90 NE3       29.91R
SPARTA         FAIR      59  59  99 CALM      29.93R
VIROQUA        FAIR      60  60 100 CALM      29.93S
BOSCOBEL       FAIR      62  60  93 CALM      29.92R FOG
PRAIRIE DU CHI FAIR      61  58  92 CALM      29.92R
PLATTEVILLE    FAIR      65  62  91 CALM      29.93R
$$

WIZ056-057-062-063-064-067-068-190400-
SOUTH CENTRAL WISCONSIN

CITY           SKY/WX    TMP DP  RH WIND       PRES   REMARKS
REEDSBURG      CLOUDY    65  64  95 W5        29.91R
BARABOO/DELLS  CLOUDY    65  59  82 CALM      29.91R
LONE ROCK      MOCLDY    64  62  93 W3        29.91R
MINERAL POINT  FAIR      63  63 100 CALM      29.93R
MADISON        CLOUDY    67  61  81 W3        29.90R
MIDDLETON      CLOUDY    66  64  93 W3        29.91R
WATERTOWN      MOCLDY    65  62  90 CALM      29.89R
MONROE         FAIR      64  59  82 W7        29.92R
JANESVILLE     FAIR      64  63  94 NW5       29.90R
$$

WIZ051-052-058>065-066-070>072-190400-
SOUTHEAST WISCONSIN

CITY           SKY/WX    TMP DP  RH WIND       PRES   REMARKS
MILWAUKEE      FAIR      72  60  66 W7        29.87R
WAUKESHA       NOT AVBL
MILWAUKEE/TIMM FAIR      64  55  72 CALM      29.88S
RACINE         FAIR      70  61  73 W7        29.89R
KENOSHA        MOCLDY    68  59  73 NW7       29.89R
FOND DU LAC    CLOUDY    67  60  78 W6        29.88R
SHEBOYGAN      CLOUDY    65  61  87 W3        29.86S
WEST BEND      CLOUDY    64  61  88 W5        29.88R
JUNEAU         CLOUDY    66  60  81 W3        29.90R
$$

LSZ147-162-190400-
LAKE SUPERIOR

STATION/POSITION TIME  TEMP    WIND        PRES    WAVE
                       AIR SEA DIR/SP/G            HT/PER
                 (UTC) (F)     (DEG/KT/KT) (MB)    (FT/S)
W MID LAKE BUOY  0250   63 60  230/ 10/ 10 1009.5R   1/ 4
DEVILS ISLAND    0300   65     220/ 10/ 12 1010.0S
PORT WING        0220   67     190/  4/ 10 1010.8
SAXON HARBOR     0240   62     180/  5/  7 1010.5S
$$

LMZ867-665-643>646-190400-
LAKE MICHIGAN

STATION/POSITION TIME  TEMP    WIND        PRES    WAVE
                       AIR SEA DIR/SP/G            HT/PER
                 (UTC) (F)     (DEG/KT/KT) (MB)    (FT/S)
S GREEN BAY BUOY 0300   68 70  360/  8/ 10 1010.7
N MID LAKE BUOY  0250   65 67  300/ 12/ 16 1010.3R   2/ 4
NORTHPORT PIER   0240   66     290/  4/  8 1010.2S
KEWAUNEE LAKESHO 0254   66     340/  3/  4 1010.1R
SHEBOYGAN LAKESH 0300   68     280/  8/ 10 1010.8R
PORT WASHINGTON  0230   71     300/  2/  4 1012.2R
ATWATER BUOY     0239   71 71  280/  8/ 10 1011.7R
MILWAUKEE LAKESH 0300   71     300/  7/ 11   N/A
S MID LAKE BUOY  0250   71 71  190/  6/  8 1011.1R   1/ 4
KENOSHA   LAKESH 0300   71     300/  7/ 12 1011.5
$$

TC  - TEMPERATURE IN CELSIUS
VSB - VISIBILITY IN STATUTE MILES
WCI - WIND CHILL INDEX
HX  - HEAT INDEX





USA.gov is the U.S. government's official web portal to all federal, state and local government web resources and services.